Погода в Благовещенской

Россия / Краснодарский край     45°03′20″N   37°07′54″E
темп.,
°C
ветер,
м/с
пор.,
м/с
влажн.,
%
обл.,
%
осадки,
мм/ч
давл.,
гПа
погр.,
м
28 июня, вт
вт2800:00+20всв81485100 0.4 1011487
03:00+20всв71486100 1.3 1011527
06:00+19св5890100 1.3 1011284
09:00+21всв6777100 1.7 1011575
12:00+24св5668100 0.1 1012576
15:00+24всв676899 0.1 1012641
18:00+25всв6861100 0.1 1012574
21:00+21св5980100 0.1 1012280
29 июня, ср
ср2900:00+20св5778100 0.0 1012171
03:00+19св587567 0.2 1012192
06:00+19св597163 0.1 1012202
09:00+24всв575789 0.3 1012270
12:00+27всв564799 0.0 1012525
15:00+28св684380 0.0 1011805
18:00+28ссв575285 0.0 1011672
21:00+24св46771 0.0 101167
30 июня, чт
чт3000:00+22св510750 0.0 1011163
03:00+21св611760 0.0 1012246
06:00+20всв59710 0.0 1012214
09:00+24всв57610 0.0 1012263
12:00+27св67560 0.0 1012579
15:00+28ссв89490 0.0 1011933
18:00+28св68500 0.0 1011850
21:00+23св510650 0.0 1012141
1 июля, пт
пт100:00+21св815523 0.0 1013361
03:00+20св7145098 0.0 1013348
06:00+19св61254100 0.0 1013295
09:00+23св810472 0.0 1014574
12:00+26св810410 0.0 1013770
15:00+27ссв910430 0.0 1013913
18:00+25с1013520 0.0 1013427
21:00+22ссв712660 0.0 1014224
2 июля, сб
сб200:00+21св614580 0.0 1015294
03:00+19св611540 0.0 1015250
06:00+18св612560 0.0 1016288
09:00+23св710500 0.0 1016607
12:00+26св810410 0.0 1016996
15:00+27ссв910420 0.0 10151019
18:00+26ссв810470 0.0 1015576
21:00+22ссв610640 0.0 1016171